Flight Information

DEPARTURE
SEATTLE, WA
Elevation:
21
Runways:
14R/32L - 10007x200 - ASPH-G
14L/32R - 3709x100 - ASPH-F
Active PE Departure:
14L - 14R
Current PE ATIS:
Y
Altimeter:
30.30
Remarks:
SIMULTANEOUS APPROACHES BETWEEN BOEING FIELD AND SEATTLE INTERNATIONAL. EXPECT AIRCRAFT ABOVE YOU ON FINAL.
ATIS:
127.75 206-767-4113
Clearance Delivery:
132.4
Ground:
121.9
Tower:
BOEING TOWER 118.3(VFR FROM THE EAST) 120.6(ALL IFR)
DESTINATION
,
Elevation:
TPA:
1000 (est.)


6668.8 NM65° True-20° Var44° HDG

Flight Plan:
(click to file on line)

1. Type
2. Aircraft Identification
3. Aircraft Type / Special Equipment
4. True Airspeed
kts
5. Departure Airport
(ICAO code)
6. Arriving Airport
(ICAO code)
7. Cruising Altitude
ft
8. Alternate Airport
(ICAO code)
9. Route of Flight
10. Remarks


00:00:00 Departure ATIS: Destination ATIS:

Clearance Limit:
Route:
Altitude: Expect in minutes
Frequency:
Transponder: (7500 Hijack / 7600 Lost Comms / 7700 Emergency)


KBFI 282153Z VRB04KT 10SM CLR 11/M03 A3029 RMK AO2 SLP256 T01061028
Time: 2022-01-28T21:53:00Z
1643407390
Winds: variable
Visibility: 10.0 sm
Clouds (AGL): CLR
Temperature: 10.6 C
Dew Point: -2.8 C
Pressure: 30.28937 in Hgbr


Notes:

Data extracted from FAA Digital Chart Supplement. Effective: 0901Z Thursday, DEC 2, 2021 to 0901Z Thursday, JAN 27, 2022
Current ATIS data is provided courtisy of PilotEdge.